EW4927 Weather Reports


time (UTC)temp
C
wind
direction
speed
KPH
gust
KPH
rain 1hr
cm
rain 24hr
cm
rain mn
cm
humidity
%
barometer
mb
20260510200629 8 0 0.0 0.0 0.00 0.00 0.00 73 1015.7
20260510194629 9 0 0.0 0.0 0.00 0.00 0.00 72 1015.7
20260510193628 10 0 0.0 0.0 0.00 0.00 0.00 71 1015.7
20260510192629 10 0 0.0 0.0 0.00 0.00 0.00 71 1015.6
20260510191629 10 0 0.0 0.0 0.00 0.00 0.00 70 1015.6
20260510190627 11 0 0.0 0.0 0.00 0.00 0.00 70 1015.7
20260510184626 11 0 0.0 0.0 0.00 0.00 0.00 70 1015.7
20260510183625 11 0 0.0 0.0 0.00 0.00 0.00 69 1015.7
20260510181646 11 0 0.0 0.0 0.00 0.00 0.00 69 1015.7
20260510180624 11 0 0.0 0.0 0.00 0.00 0.00 68 1015.6
20260510174624 12 0 0.0 0.0 0.00 0.00 0.00 66 1015.6
20260510173623 13 0 0.0 0.0 0.00 0.00 0.00 60 1015.7
20260510171620 13 0 0.0 0.0 0.00 0.00 0.00 54 1015.8
20260510170622 15 0 0.0 0.0 0.00 0.00 0.00 56 1015.8
20260510163621 15 0 0.0 0.0 0.00 0.00 0.00 61 1016.2
20260510162620 15 0 0.0 0.0 0.00 0.00 0.00 58 1016.2
20260510161619 15 0 0.0 0.0 0.00 0.00 0.00 60 1016.4
20260510160618 15 0 0.0 0.0 0.00 0.00 0.00 58 1016.4
20260510155616 14 0 0.0 0.0 0.00 0.00 0.00 59 1016.5
20260510154616 15 0 0.0 0.0 0.00 0.00 0.00 60 1016.6
20260510153614 15 0 0.0 0.0 0.00 0.00 0.00 60 1016.7
20260510152616 15 0 0.0 0.0 0.00 0.00 0.00 62 1016.7
20260510151614 14 0 0.0 0.0 0.00 0.00 0.00 63 1016.9
20260510145612 13 0 0.0 0.0 0.00 0.00 0.00 69 1017.1
20260510144614 13 0 0.0 0.0 0.00 0.00 0.00 66 1017.3
20260510143611 13 0 0.0 0.0 0.00 0.00 0.00 66 1017.3
20260510142613 15 0 0.0 0.0 0.00 0.00 0.00 64 1017.4
20260510141610 14 0 0.0 0.0 0.00 0.00 0.00 63 1017.5
20260510140610 15 0 0.0 0.0 0.00 0.00 0.00 65 1017.6
20260510135610 15 0 0.0 0.0 0.00 0.00 0.00 60 1017.7
20260510134608 15 0 0.0 0.0 0.00 0.00 0.00 61 1017.6
20260510133608 15 0 0.0 0.0 0.00 0.00 0.00 64 1017.7
20260510132606 15 0 0.0 0.0 0.00 0.00 0.00 63 1017.8
20260510131607 15 0 0.0 0.0 0.00 0.00 0.00 62 1018.0
20260510130606 15 0 0.0 0.0 0.00 0.00 0.00 62 1018.1
20260510125607 15 0 0.0 0.0 0.00 0.00 0.00 63 1018.2
20260510124605 15 0 0.0 0.0 0.00 0.00 0.00 66 1018.2
20260510123606 15 0 0.0 0.0 0.00 0.00 0.00 66 1018.3
20260510122604 15 0 0.0 0.0 0.00 0.00 0.00 64 1018.4
20260510120602 15 0 0.0 0.0 0.00 0.00 0.00 66 1018.6
20260510113601 14 0 0.0 0.0 0.00 0.00 0.00 70 1018.7
20260510111600 13 0 0.0 0.0 0.00 0.00 0.00 70 1019.0
20260510110600 13 0 0.0 0.0 0.00 0.00 0.00 73 1019.1
20260510105600 13 0 0.0 0.0 0.00 0.00 0.00 70 1019.2
20260510104558 13 0 0.0 0.0 0.00 0.00 0.00 72 1019.3
20260510103557 12 0 0.0 0.0 0.00 0.00 0.00 74 1019.4
20260510102559 12 0 0.0 0.0 0.00 0.00 0.00 74 1019.6
20260510100556 12 0 0.0 0.0 0.00 0.00 0.00 76 1019.6
20260510095555 12 0 0.0 0.0 0.00 0.00 0.00 77 1019.6
20260510094555 12 0 0.0 0.0 0.00 0.00 0.00 79 1019.6
20260510093555 11 0 0.0 0.0 0.00 0.00 0.00 78 1019.6
20260510092555 11 0 0.0 0.0 0.00 0.00 0.00 79 1019.7
20260510090554 11 0 0.0 0.0 0.00 0.00 0.00 81 1019.7
20260510085553 10 0 0.0 0.0 0.00 0.00 0.00 82 1019.8
20260510084551 10 0 0.0 0.0 0.00 0.00 0.00 83 1019.8
20260510082552 10 0 0.0 0.0 0.00 0.00 0.00 84 1019.8
20260510081549 9 0 0.0 0.0 0.00 0.00 0.00 84 1019.8
20260510080549 9 0 0.0 0.0 0.00 0.00 0.00 86 1019.9
20260510075549 9 0 0.0 0.0 0.00 0.00 0.00 86 1019.8
20260510074547 9 0 0.0 0.0 0.00 0.00 0.00 87 1019.8
20260510073547 8 0 0.0 0.0 0.00 0.00 0.00 87 1019.8
20260510072548 8 0 0.0 0.0 0.00 0.00 0.00 88 1019.7
20260510071546 8 0 0.0 0.0 0.00 0.00 0.00 88 1019.6
20260510070547 8 0 0.0 0.0 0.00 0.00 0.00 89 1019.5
20260510064546 8 0 0.0 0.0 0.00 0.00 0.00 91 1019.4
20260510062544 7 0 0.0 0.0 0.00 0.00 0.00 93 1019.3
20260510061542 7 0 0.0 0.0 0.00 0.00 0.00 94 1019.1
20260510060541 7 0 0.0 0.0 0.00 0.00 0.00 93 1019.0
20260510055542 7 0 0.0 0.0 0.00 0.00 0.00 93 1018.8
20260510054542 7 0 0.0 0.0 0.00 0.00 0.00 93 1018.9
20260510053542 7 0 0.0 0.0 0.00 0.00 0.00 93 1018.9
20260510051539 7 0 0.0 0.0 0.00 0.00 0.00 93 1019.0
20260510050539 7 0 0.0 0.0 0.00 0.00 0.00 92 1019.1
20260510045538 7 0 0.0 0.0 0.00 0.00 0.00 92 1019.0
20260510044538 7 0 0.0 0.0 0.00 0.00 0.00 92 1019.1
20260510043539 7 0 0.0 0.0 0.00 0.00 0.00 92 1019.2
20260510041535 7 0 0.0 0.0 0.00 0.00 0.00 92 1019.1
20260509225640 10 0 0.0 0.0 0.00 0.00 0.00 93 1019.3
20260509224637 10 0 0.0 0.0 0.00 0.00 0.00 93 1019.1
20260509222636 10 0 0.0 0.0 0.00 0.00 0.00 93 1019.3
20260509221636 10 0 0.0 0.0 0.00 0.00 0.00 93 1019.2
20260509220635 9 0 0.0 0.0 0.00 0.00 0.00 93 1019.2
20260509215633 9 0 0.0 0.0 0.00 0.00 0.00 92 1019.2
20260509214633 9 0 0.0 0.0 0.00 0.00 0.00 92 1019.3
20260509213636 9 0 0.0 0.0 0.00 0.00 0.00 92 1019.3
20260509212633 9 0 0.0 0.0 0.00 0.00 0.00 92 1019.4
20260509211632 10 0 0.0 0.0 0.00 0.00 0.00 91 1019.3
20260509210632 10 0 0.0 0.0 0.00 0.00 0.00 91 1019.3
20260509205632 10 0 0.0 0.0 0.00 0.00 0.00 90 1019.3
20260509204631 10 0 0.0 0.0 0.00 0.00 0.00 90 1019.2
20260509203632 10 0 0.0 0.0 0.00 0.00 0.00 90 1019.1
20260509202630 11 0 0.0 0.0 0.00 0.00 0.00 90 1019.0